Location: Dos Palmas
(32.4468°N, 116.8732°W)
Time: 23:56:07
(UTC+00:00)

Cosmos 1656 Rocket - Pass Details

Date: 20 June 2021
Orbit: 794 x 847 km, 71.1° (Epoch: 27 July)

Event Time Altitude Azimuth Distance (km) Brightness Sun altitude
Rises 08:48:48 0° 346° (NNW) 3,412 7.7 -32.3°
Reaches altitude 10° 08:51:21 10° 352° (N) 2,472 6.8 -32.2°
Enters shadow 08:56:47 48° 64° (ENE) 1,084 4.4 -31.8°
